GPM-CORE (39574 NORAD) Tracking and Keplerian Element Data

This shows tracking and keplerian element data for the satellite.

Feedback or suggestion? Click here.




ElementValue
Catalog39574
NameGPM-CORE
Epoch Orbit29262
Epoch Day113.84991992
Epoch Year2019
RAAN142.1304
Inclination65.0042
Eccentricity0.0011864
Argument of Perigee287.648
Mean Anonmoly72.337
Mean Motion15.55927101
Decay Rate1.513E-05
L11 39574U 14009C 19113.84991992 .00001513 00000-0 25965-4 0 9999
L22 39574 65.0042 142.1304 0011864 287.6480 72.3370 15.55927101292626

Live tracking and technical data element details for GPM-CORE (NORAD 39574). GPM-CORE can be tracked NOW for your location showing map with azimuth and elevation plus other details from your city location.

Track the satellite on the map from your city or location and see movement details for azimuth, elevation, latitude, longitude, range, height, and movement on the map or in text.







IsCatalogInMostPopularTable: catalog: 39574, numindb: 204
Update: records affected: 1



GetName: 39574 GPM-CORE

Hit Count: updated at: Thu, 25 Apr 2019 19:50:44 GMT